Notices

What's New in latest Release from April 7th, 2021:

- Updated Glossary, including Speed of Maximum Gust, and Total Hourly Precipitation

- Updated national and regional climate services offices contacts and prices information

- Addition of station inventory lists for 1981-2010, 1971-2000, and 1961-1990 Normals.

If you haven't already, please take our survey and provide feedback about our website: https://eccc.sondage-survey.ca/f/LanguageSelection.aspx?s=442ca660-fcf1-47c0-95a9-59707d6fd709

Hourly Data Report for March 29, 2017

MIRAMICHI RCS
NEW BRUNSWICK

47°00'34.000" N
65°27'54.000" W
33.00 m
8100989
71744
ACQ

Download Data

Hourly Data (March 2017)
Hourly Data Report for March 29, 2017
TIME
LST
Temp Definition
°C
Dew Point Definition
°C
Rel Hum Definition
%
Precip. Amount Definition
mm

Wind Dir Definition
10's deg

Wind Spd Definition
km/h
Visibility Definition
km
Stn Press Definition
kPa
Hmdx Definition


Wind Chill Definition


Weather Definition


00:00 -2.8 -3.5 95 1.4 4 5   101.38   -5 LegendNANA
01:00 -2.9 -3.7 94 0.7 3 5   101.37   -5 LegendNANA
02:00 -2.8 -3.6 95 0.0 3 8   101.31   -6 LegendNANA
03:00 -2.5 -3.2 95 0.2 3 8   101.29   -6 LegendNANA
04:00 -2.4 -3.2 94 0.0 3 7   101.31   -5 LegendNANA
05:00 -2.5 -3.3 94 0.0 1 6   101.30   -5 LegendNANA
06:00 -2.4 -3.2 94 0.0 3 8   101.30   -6 LegendNANA
07:00 -2.3 -2.9 95 0.0 4 8   101.30   -5 LegendNANA
08:00 -2.0 -2.8 95 0.0 4 8   101.32   -5 LegendNANA
09:00 -1.5 -2.4 94 0.0 4 8   101.29   -5 LegendNANA
10:00 -1.2 -2.3 92 0.0 5 10   101.28   -5 LegendNANA
11:00 -0.7 -2.4 89 0.0 6 12   101.24   -5 LegendNANA
12:00 -0.7 -2.6 87 0.0 6 17   101.19   -6 LegendNANA
13:00 -0.8 -2.8 87 0.0 6 19   101.18   -6 LegendNANA
14:00 -0.8 -2.8 86 0.0 7 17   101.19   -6 LegendNANA
15:00 -0.9 -3.6 82 0.0 6 18   101.21   -6 LegendNANA
16:00 -0.8 -3.0 85 0.0 6 15   101.19   -5 LegendNANA
17:00 -1.0 -2.4 90 0.0 5 10   101.19   -5 LegendNANA
18:00 -1.0 -2.8 88 0.0 3 9   101.18   -4 LegendNANA
19:00 -0.9 -3.4 83 0.0 36 7   101.20   -3 LegendNANA
20:00 -1.4 -3.4 86 0.0 36 7   101.26   -4 LegendNANA
21:00 -1.7 -3.6 86 0.0 34 5   101.26   -4 LegendNANA
22:00 -1.9 -3.8 87 0.0 33 6   101.24   -4 LegendNANA
23:00 -1.9 -3.6 88 0.0 33 7   101.20   -5 LegendNANA

Notes on Data Quality.

Legend

  • E = Estimated
  • M = Missing
  • NA = Not Available*
  • [empty] = Indicates an unobserved value
Date modified: